+ View the NASA Portal
+ Center for Near-Earth Object Studies
IMPORTANT:
The SSD Announcement email list is now available. Major changes are coming in the near future, including possible hostname and/or URL changes. To be notified of such changes, subscribe to this email list.
Please visit
this page
for more details.
Don't show this message again
JPL Small-Body Database Browser
Search:
[
help
]
27794 (1993 FY5)
Classification:
Main-belt Asteroid
SPK-ID:
2027794
[
Ephemeris
|
Orbit Diagram
|
Orbital Elements
|
Mission Design
|
Physical Parameters
|
Discovery Circumstances
]
[ show orbit diagram ]
Orbital Elements at Epoch 2458600.5 (2019-Apr-27.0) TDB
Reference:
JPL 20
(heliocentric ecliptic J2000)
Element
Value
Uncertainty (1-sigma)
Units
e
.07935012037574289
4.2387e-08
a
2.323448951924776
9.1092e-09
au
q
2.139082997902652
9.8662e-08
au
i
4.558910774446536
5.0997e-06
deg
node
25.24840090350162
5.5488e-05
deg
peri
103.8762525227509
6.4221e-05
deg
M
179.1002711176403
3.4405e-05
deg
t
p
2457956.935807772290
(2017-Jul-22.43580777)
0.00012218
TDB
period
1293.594408072095
3.54
7.6074e-06
2.083e-08
d
yr
n
.2782943384368252
1.6366e-09
deg/d
Q
2.507814905946901
9.832e-09
au
Orbit Determination Parameters
# obs. used (total)
749
data-arc span
9725 days (26.63 yr)
first obs. used
1993-03-17
last obs. used
2019-11-01
planetary ephem.
DE431
SB-pert. ephem.
SB431-N16
condition code
0
norm. resid. RMS
.60029
source
ORB
producer
Otto Matic
solution date
2019-Nov-07 05:02:15
Additional Information
Earth MOID
= 1.15955 au
Jupiter MOID
= 2.51641 au
T_jup
= 3.568
[ show covariance matrix ]
[
Ephemeris
|
Orbit Diagram
|
Orbital Elements
|
Mission Design
|
Physical Parameters
|
Discovery Circumstances
]
Physical Parameter Table
Parameter
Symbol
Value
Units
Sigma
Reference
Notes
absolute magnitude
H
15.7
n/a
MPO449167
27794 (1993 FY5)
Discovered 1993-Mar-17 by UESAC at La Silla
Reference:
20010902/Numbers.arc
Last Updated:
2004-04-19
Alternate Designations
1993 FY5
= 1998 ST28
[
Ephemeris
|
Orbit Diagram
|
Orbital Elements
|
Mission Design
|
Physical Parameters
|
Discovery Circumstances
]
2019-Dec-14 19:37 UT
(server date/time)
Site Manager:
Ryan S. Park
Webmaster
:
Alan B. Chamberlin